Content
SEND FEEDBACK

Daily
Averages
Monthly
Summary
United States of America

BURLINGTON, NORTH DAKOTA


Home > North America > United States > North Dakota
Elevation: 1679 feet     Latitude: 48 16N     Longitude: 101 17W

WEATHER
 
SELECT A DAY
Number of Records: 200,236;   Date Range: 1/1/95 - 9/18/14
 
SHARE

PRINT THIS DATA

[ ← Previous Day ]
WEATHER ALMANAC - MARCH 12, 2014
[ Next Day → ]
[ °C ]   °F
Weather ElementAverageHighLow
Temperature36.2 °F48 °F (5:54 pm)24.1 °F (6:54 am)
Dewpoint27.3 °F32 °F (5:54 pm)21 °F (6:54 am)
Humidity72 %92 % (5:54 am)51 % (1:54 pm)
Barometer30.01 in30.15 in (1:54 am)29.86 in (11:54 pm)
Wind Speed10.9 mph20.7 mph (2:54 pm)
Wind Gust27.6 mph (5:54 pm)
Weather ElementAverage
Visibility9.5 mi
Wind DirectionSW (224.3 °)

Weather ElementTotal
Precipitation---
Heating Degree Days29 (Base 65)
Averaged from 23 records on March 12, 2014
WEATHER CONDITIONS BREAKOUT
WIND DIRECTION BREAKOUT
WEATHER BY HOUR - MARCH 12, 2014
[ °C ]   °F
Local TimeTemperatureDewpointHumidityBarometerVisibilityWind DirectionWind SpeedGust SpeedPrecipitationEventsConditions
1:54 AM30.0 °F26.1 °F85 %30.15 in10.0 miWest (280°)9.2 mphClear
2:54 AM28.9 °F25.0 °F85 %30.15 in10.0 miWNW (300°)11.5 mphClear
3:54 AM27.0 °F24.1 °F89 %30.13 in10.0 miWNW (300°)8.1 mphClear
4:54 AM27.0 °F24.1 °F89 %30.11 in9.0 miCalmClear
5:54 AM26.1 °F24.1 °F92 %30.11 in7.0 miSW (220°)4.6 mphClear
6:54 AM24.1 °F21.0 °F88 %30.11 in8.0 miSSW (210°)4.6 mphClear
7:54 AM24.1 °F21.0 °F88 %30.09 in8.0 miSW (220°)5.8 mphClear
8:54 AM25.0 °F21.9 °F88 %30.07 in7.0 miCalmClear
9:54 AM30.0 °F25.0 °F82 %30.06 in10.0 miCalmClear
10:54 AM36.0 °F27.0 °F70 %30.04 in10.0 miWest (270°)13.8 mphClear
11:54 AM39.0 °F28.0 °F65 %30.02 in10.0 miWest (260°)11.5 mphScattered Clouds
12:54 PM41.0 °F28.0 °F60 %30.00 in10.0 miWSW (250°)10.4 mphOvercast
1:54 PM46.0 °F28.9 °F51 %29.97 in10.0 miWest (270°)13.8 mphOvercast
2:54 PM46.0 °F28.9 °F51 %29.95 in10.0 miWest (270°)20.7 mph25.3 mphClear
3:54 PM46.9 °F30.0 °F52 %29.94 in10.0 miWest (260°)20.7 mphClear
4:54 PM46.9 °F30.9 °F54 %29.93 in10.0 miWest (260°)18.4 mphClear
5:54 PM48.0 °F32.0 °F54 %29.92 in10.0 miWest (270°)17.3 mph27.6 mphClear
6:54 PM45.0 °F32.0 °F60 %29.92 in10.0 miWest (270°)15.0 mphClear
7:54 PM42.1 °F30.9 °F65 %29.92 in10.0 miWest (260°)12.7 mphClear
8:54 PM39.9 °F30.0 °F68 %29.91 in10.0 miWest (260°)13.8 mphClear
9:54 PM39.0 °F30.0 °F70 %29.89 in10.0 miWest (260°)12.7 mphClear
10:54 PM36.0 °F30.0 °F79 %29.87 in10.0 miSW (220°)10.4 mphClear
11:54 PM39.0 °F30.0 °F70 %29.86 in10.0 miWSW (250°)15.0 mphClear
Hourly data recorded from KMOT, located miles away from Burlington, North Dakota







STORIES FROM OUR PARTNERS